Location: ??
(34.9170°N, 135.5016°E)
Time: 20:25:56
(UTC+00:00)

X-37B - Visible Passes

Search period start: 22 January 2021 00:00
Search period end: 01 February 2021 00:00
Orbit: 385 x 390 km, 45.0° (Epoch: 20 January)

Date Brightness Start Highest point End Pass type
(mag) Time Alt. Az. Time Alt. Az. Time Alt. Az.
22 Jan 2.7 09:31:35 10° WNW 09:33:51 18° NNW 09:34:50 16° N visible
23 Jan 3.5 10:11:02 10° NNW 10:11:26 11° NNW 10:11:26 11° NNW visible
24 Jan 2.9 09:12:08 10° NW 09:14:01 15° N 09:15:44 11° NNE visible
25 Jan 3.1 09:51:11 10° NNW 09:52:20 13° N 09:52:20 13° N visible
26 Jan 3.0 08:52:34 10° NNW 08:54:12 13° N 08:55:49 10° NNE visible
27 Jan 2.7 09:31:03 10° NNW 09:33:03 15° N 09:33:21 15° NNE visible
28 Jan 2.9 10:08:56 10° NW 10:10:05 18° NNW 10:10:05 18° NNW visible
29 Jan 2.3 09:10:46 10° NNW 09:13:12 20° NNE 09:14:38 15° NE visible
30 Jan 0.9 09:48:39 10° NW 09:51:36 48° NNE 09:51:36 48° NNE visible
31 Jan 1.7 08:50:27 10° NW 08:53:16 28° NNE 08:56:04 10° E visible
31 Jan 2.8 10:26:58 10° WNW 10:28:45 26° W 10:28:45 26° W visible
